Location: ????????
(55.0559°N, 39.1270°E)
Time: 01:43:46
(UTC+00:00)

CZ-2D R/B - Pass Details

Date: 15 November 2025
Orbit: 788 x 842 km, 98.9° (Epoch: 12 December)

Event Time Altitude Azimuth Distance (km) Brightness Sun altitude
Rises 00:33:16 0° 15° (NNE) 3,328 5.7 -36.8°
Reaches altitude 10° 00:35:37 10° 14° (NNE) 2,387 4.9 -36.5°
Enters shadow 00:36:46 17° 13° (NNE) 1,936 4.3 -36.4°
